Regional Weather Roundup
Issued by NWS Burlington, VT

Current Version | Previous Version | Text Only | Print | Product List | Glossary On
Versions: 1 2 3 4 5 6 7 8 9 10 11 12 13 14 15 16 17 18 19 20 21 22 23 24 25 26 27 28 29 30 31 32 33 34 35 36 37 38 39 40 41 42 43 44 45 46 47 48 49 50
000 ASUS41 KBTV 061730 RWRBTV VERMONT REGIONAL WEATHER ROUNDUP NATIONAL WEATHER SERVICE BURLINGTON VT 100 PM EDT MON JUL 06 2015 NOTE: "FAIR" INDICATES FEW OR NO CLOUDS BELOW 12,000 FEET WITH NO SIGNIFICANT WEATHER AND/OR OBSTRUCTIONS TO VISIBILITY. * THESE REPORTS ARE NOT UNDER NWS QUALITY CONTROL AND/OR DO NOT REPORT WEATHER SUCH AS PRECIPITATION AND FOG. VTZ001>019-061800- _____VERMONT_____ CITY SKY/WX TMP DP RH WIND PRES REMARKS BURLINGTON MOSUNNY 81 61 50 S8 30.14F MONTPELIER MOSUNNY 77 56 48 CALM 30.21S MORRISVILLE MOSUNNY 81 59 47 CALM 30.16F ST. JOHNSBURY* N/A 81 56 42 MISG 30.14F LYNDONVILLE* FAIR 78 59 52 SE6 30.19F MIDDLEBURY* FAIR 80 55 42 SW6 30.16S RUTLAND* PTSUNNY 77 54 44 CALM 30.18F SPRINGFIELD MOSUNNY 79 55 43 SE5 30.16F HIGHGATE* FAIR 79 62 57 SW7 30.14S NEWPORT* FAIR 76 59 55 CALM 30.17S BENNINGTON MOSUNNY 79 60 52 VRB3 30.19R SUTTON* N/A 77 N/A N/A MISG N/A MT. MANSFIELD* N/A 63 N/A N/A W3 N/A _____LAKE CHAMPLAIN_____ CITY SKY/WX TMP DP RH WIND PRES REMARKS BURTON ISLAND* N/A 73 66 78 SW3 N/A COLCHESTER RF* N/A 72 64 78 S6 N/A DIAMOND ISL* N/A 73 64 73 S8 N/A $$ NYZ007-026>031-035-052-083-061800- _____NORTHERN NEW YORK_____ CITY SKY/WX TMP DP RH WIND PRES REMARKS PLATTSBURGH SUNNY 77 62 59 SE10 30.14F SARANAC LAKE SUNNY 77 49 37 S6 30.18S MASSENA SUNNY 82 60 47 S5 30.12F OGDENSBURG* SUNNY 82 59 44 SW5 30.12S POTSDAM* SUNNY 81 61 50 S5 30.12F WATERTOWN SUNNY 83 60 45 SW8 30.11F FT DRUM SUNNY 81 63 53 SE8 30.12F ALBANY MOSUNNY 82 59 45 CALM 30.17R GLENS FALLS SUNNY 80 61 52 VRB6 30.16S $$ NHZ002-005-011-061800- _____NEW HAMPSHIRE_____ CITY SKY/WX TMP DP RH WIND PRES REMARKS LEBANON SUNNY 82 55 39 SW9 30.15F KEENE MOSUNNY 81 57 44 W5 30.17S MT WASHINGTON PTSUNNY 54 48 82 VRB1 N/A PLYMOUTH FAIR 81 64 56 CALM 30.14F WHITEFIELD SUNNY 81 57 43 VRB5 30.17F $$ _____REGIONAL QUEBEC LOCATIONS_____ CITY SKY/WX TMP DP RH WIND PRES REMARKS MONTREAL MOSUNNY 79 64 61 SW9 30.11F QUEBEC CITY PTSUNNY 79 61 53 SW10 30.10F SHERBROOKE MOSUNNY 77 61 57 SW3 30.15F _____REGIONAL ONTARIO LOCATIONS_____ CITY SKY/WX TMP DP RH WIND PRES REMARKS OTTAWA PTSUNNY 79 64 61 S9 30.11F ______KEY______ VSB - VISIBILITY IN MILES WCI - WIND CHILL INDEX HX - HEAT INDEX $$ NNNN

USA.gov is the U.S. government's official web portal to all federal, state and local government web resources and services.